Location: Brienzwiler
(46.7508°N, 8.1014°E)
Time: 17:06:37
(UTC+00:00)

Cosmos 1340 - Pass Details

Date: 05 July 2020
Orbit: 502 x 505 km, 81.2° (Epoch: 10 August)

Event Time Altitude Azimuth Distance (km) Brightness Sun altitude
Exits shadow 23:34:14 54° 247° (WSW) 620 2.9 -20.6°
Maximum altitude 23:34:43 59° 283° (WNW) 585 2.9 -20.6°
Drops below altitude 10° 23:38:27 10° 4° (N) 1,723 6.5 -20.6°
Sets 23:40:37 0° 8° (N) 2,613 7.8 -20.6°
